Location: Ottawa
(45.4170°N, 75.7000°W)
Time: 21:55:31
(UTC-04:00)

ISS - Pass Details

Date: 25 September 2020
Orbit: 417 x 420 km, 51.6° (Epoch: 25 October)

Event Time Altitude Azimuth Distance (km) Brightness Sun altitude
Rises 19:37:09 0° 272° (W) 2,364 2.5 -8.5°
Reaches altitude 10° 19:39:23 10° 282° (WNW) 1,502 0.7 -8.9°
Maximum altitude 19:42:27 32° 348° (NNW) 748 -2.3 -9.4°
Drops below altitude 10° 19:45:32 10° 54° (NE) 1,506 -1.4 -9.9°
Enters shadow 19:45:54 - 56° (NE) 1,636 -1.2 -10.0°
